Torna al catalogo

SL-8 DEB

AttivoLEO
NORAD 5225·DEBRIS·🇷🇺 Russia

Lanciato Dec 2, 1970 da Plesetsk Cosmodrome

Loading…

Prossimi Passaggi (prossime 24 ore)

TLE

AggiornatoSource: Space-Track

Epoca: Sep 13, 2026, 06:51 UTC

1 05225U 70102D   26256.28596605  .00000278  00000-0  23411-3 0  9997
2 05225  74.0248 331.1840 0018273 264.8314 154.6860 13.92431269819345

Traccia SL-8 DEB in tempo reale con AllMySat

Download on the App Store